Location: Unspecified
(0.0000°N, 0.0000°E)
Time: 18:06:16
(UTC+00:00)

COSMOS 2416 - Pass Details

Date: 20 May 2026
Orbit: 1436 x 1449 km, 82.5° (Epoch: 10 June)

Event Time Altitude Azimuth Distance (km) Brightness Sun altitude
Rises 18:05:10 0° 350° (N) 4,518 9.7 -2.0°
Reaches altitude 10° 18:08:02 10° 347° (NNW) 3,541 9.2 -2.7°
Maximum altitude 18:16:24 66° 267° (W) 1,552 7.2 -4.6°
Drops below altitude 10° 18:24:47 10° 186° (S) 3,546 8.6 -6.6°
Sets 18:27:40 0° 183° (S) 4,525 9.1 -7.3°
